Weather History for KUTA - June, 2013

Change the Weather History Date:

Thursday, June 13, 2013

  Actual Average (KMEM) Record (KMEM)
Temperature  
Mean Temperature 85 °F 79 °F  
Max Temperature 95 °F 89 °F 100 °F (1953)
Min Temperature 73 °F 70 °F 54 °F (1903)
Degree Days  
Heating Degree Days 0 0  
Month to date heating degree days 0  
Since 1 June heating degree days 0  
Since 1 July heating degree days 2964  
Cooling Degree Days 20 14  
Month to date cooling degree days 167  
Year to date cooling degree days 488  
Since 1 June cooling degree days 167  
Growing Degree Days 35 (Base 50)    
Moisture  
Dew Point 69 °F    
Average Humidity 61    
Maximum Humidity 78    
Minimum Humidity 38    
Precipitation  
Precipitation 0.00 in 0.12 in 3.98 in (1889)
Month to date precipitation 1.69  
Year to date precipitation 25.97  
Snow  
Snow 0.00 in 0.00 in - ()
Month to date snowfall 0.0  
Since 1 June snowfall 0.0  
Since 1 July snowfall 3.8  
Snow Depth -    
Sea Level Pressure  
Sea Level Pressure 29.94 in    
Wind  
Wind Speed 12 mph (West)    
Max Wind Speed 20 mph    
Max Gust Speed 25 mph    
Visibility 10 miles    
Events      
T = Trace of Precipitation, MM = Missing Value Source: NWS Daily Summary

Daily Weather History Graph

Daily Weather History Graph

Search for Another Location

Airport or City:

Trip Planner

Search our weather history database for the weather conditions in past years. The results will help you decide how hot, cold, wet, or windy it might be!

Date:

Astronomy

Jun. 13, 2013 Rise Set
Actual Time 5:47 AM CDT 8:15 PM CDT
Civil Twilight 5:18 AM CDT 8:44 PM CDT
Nautical Twilight 4:41 AM CDT 9:21 PM CDT
Astronomical Twilight 4:01 AM CDT 10:01 PM CDT
Moon 10:15 AM CDT (6/13) 11:32 PM CDT (6/13)
Length of Visible Light 15h 26m
Length of Day
14h 27m
Waxing Crescent, 22% of the Moon is Illuminated
Jun 13
Waxing Crescent
Jun 16
First Quarter
Jun 23
Full
Jun 29
Last Quarter
Jul 8
New

Hourly Weather History & Observations

Time (CDT) Temp. Heat Index Dew Point Humidity Pressure Visibility Wind Dir Wind Speed Gust Speed Precip Events Conditions
12:15 AM 80.6 °F 84.6 °F 71.6 °F 74% 29.97 in 10.0 mi SW 9.2 mph - N/A   Clear
12:35 AM 80.6 °F 84.6 °F 71.6 °F 74% 29.96 in 10.0 mi SW 11.5 mph - N/A   Clear
12:55 AM 80.6 °F 84.6 °F 71.6 °F 74% 29.96 in 10.0 mi SW 10.4 mph - N/A   Scattered Clouds
1:15 AM 80.6 °F 84.6 °F 71.6 °F 74% 29.96 in 10.0 mi SW 12.7 mph - N/A   Scattered Clouds
1:35 AM 80.6 °F 84.6 °F 71.6 °F 74% 29.95 in 10.0 mi SW 11.5 mph - N/A   Scattered Clouds
1:55 AM 80.6 °F 84.6 °F 71.6 °F 74% 29.95 in 10.0 mi SW 10.4 mph - N/A   Scattered Clouds
2:15 AM 80.6 °F 84.6 °F 71.6 °F 74% 29.95 in 10.0 mi SW 9.2 mph - N/A   Clear
2:35 AM 78.8 °F - 71.6 °F 78% 29.95 in 10.0 mi SW 10.4 mph - N/A   Scattered Clouds
2:55 AM 78.8 °F - 71.6 °F 78% 29.96 in 10.0 mi SW 8.1 mph - N/A   Scattered Clouds
3:15 AM 78.8 °F - 71.6 °F 78% 29.95 in 10.0 mi SW 8.1 mph - N/A   Scattered Clouds
3:35 AM 78.8 °F - 71.6 °F 78% 29.96 in 10.0 mi WSW 8.1 mph - N/A   Clear
3:55 AM 78.8 °F - 71.6 °F 78% 29.96 in 10.0 mi WSW 6.9 mph - N/A   Clear
4:15 AM 78.8 °F - 71.6 °F 78% 29.95 in 10.0 mi SW 8.1 mph - N/A   Clear
4:35 AM 78.8 °F - 71.6 °F 78% 29.95 in 10.0 mi WSW 8.1 mph - N/A   Clear
4:55 AM 78.8 °F - 71.6 °F 78% 29.95 in 10.0 mi WSW 9.2 mph - N/A   Clear
5:15 AM 78.8 °F - 71.6 °F 78% 29.95 in 10.0 mi WSW 9.2 mph - N/A   Clear
5:35 AM 78.8 °F - 71.6 °F 78% 29.95 in 10.0 mi SW 8.1 mph - N/A   Clear
5:55 AM 78.8 °F - 71.6 °F 78% 29.95 in 10.0 mi SW 9.2 mph - N/A   Clear
6:15 AM 78.8 °F - 71.6 °F 78% 29.96 in 10.0 mi SW 9.2 mph - N/A   Clear
6:35 AM 78.8 °F - 71.6 °F 78% 29.96 in 10.0 mi SW 9.2 mph - N/A   Clear
6:55 AM 78.8 °F - 71.6 °F 78% 29.97 in 10.0 mi SW 10.4 mph - N/A   Clear
7:15 AM 78.8 °F - 71.6 °F 78% 29.97 in 10.0 mi SW 9.2 mph - N/A   Clear
7:35 AM 80.6 °F 84.6 °F 71.6 °F 74% 29.97 in 10.0 mi WSW 10.4 mph - N/A   Clear
7:55 AM 80.6 °F 84.6 °F 71.6 °F 74% 29.97 in 10.0 mi WSW 15.0 mph 20.7 mph N/A   Clear
8:15 AM 80.6 °F 84.6 °F 71.6 °F 74% 29.98 in 10.0 mi WSW 13.8 mph 20.7 mph N/A   Scattered Clouds
8:35 AM 82.4 °F 87.2 °F 71.6 °F 70% 29.98 in 10.0 mi WSW 12.7 mph 17.3 mph N/A   Scattered Clouds
8:55 AM 84.2 °F 89.6 °F 71.6 °F 66% 29.98 in 10.0 mi WSW 12.7 mph - N/A   Clear
9:15 AM 86.0 °F 91.8 °F 71.6 °F 62% 29.98 in 10.0 mi WSW 12.7 mph - N/A   Clear
9:35 AM 86.0 °F 91.8 °F 71.6 °F 62% 29.98 in 10.0 mi WSW 16.1 mph - N/A   Clear
9:55 AM 87.8 °F 93.8 °F 71.6 °F 58% 29.97 in 10.0 mi WSW 16.1 mph 20.7 mph N/A   Clear
10:15 AM 87.8 °F 93.8 °F 71.6 °F 58% 29.97 in 10.0 mi West 18.4 mph - N/A   Clear
10:35 AM 89.6 °F 96.2 °F 71.6 °F 55% 29.97 in 10.0 mi West 16.1 mph - N/A   Clear
10:55 AM 89.6 °F 96.2 °F 71.6 °F 55% 29.96 in 10.0 mi West 15.0 mph 19.6 mph N/A   Clear
11:15 AM 89.6 °F 96.2 °F 71.6 °F 55% 29.96 in 10.0 mi West 13.8 mph - N/A   Clear
11:35 AM 89.6 °F 96.2 °F 71.6 °F 55% 29.95 in 10.0 mi West 15.0 mph - N/A   Clear
11:55 AM 91.4 °F 98.4 °F 71.6 °F 52% 29.95 in 10.0 mi West 17.3 mph 21.9 mph N/A   Clear
12:15 PM 91.4 °F 98.4 °F 71.6 °F 52% 29.95 in 10.0 mi West 16.1 mph 21.9 mph N/A   Clear
12:35 PM 91.4 °F 98.4 °F 71.6 °F 52% 29.94 in 10.0 mi West 15.0 mph 21.9 mph N/A   Clear
12:55 PM 91.4 °F 98.4 °F 71.6 °F 52% 29.94 in 10.0 mi West 18.4 mph 25.3 mph N/A   Clear
1:15 PM 91.4 °F 98.4 °F 71.6 °F 52% 29.93 in 10.0 mi West 18.4 mph - N/A   Clear
1:35 PM 93.2 °F 100.5 °F 71.6 °F 49% 29.93 in 10.0 mi WNW 15.0 mph 20.7 mph N/A   Clear
1:55 PM 93.2 °F 100.5 °F 71.6 °F 49% 29.93 in 10.0 mi WNW 16.1 mph 21.9 mph N/A   Clear
2:15 PM 93.2 °F 100.5 °F 71.6 °F 49% 29.92 in 10.0 mi West 17.3 mph 20.7 mph N/A   Clear
2:35 PM 95.0 °F 103.2 °F 71.6 °F 47% 29.92 in 10.0 mi West 16.1 mph 24.2 mph N/A   Clear
2:55 PM 95.0 °F 103.2 °F 71.6 °F 47% 29.91 in 10.0 mi West 13.8 mph 18.4 mph N/A   Scattered Clouds
3:15 PM 95.0 °F 103.2 °F 71.6 °F 47% 29.90 in 10.0 mi West 15.0 mph - N/A   Scattered Clouds
3:35 PM 93.2 °F 98.8 °F 69.8 °F 46% 29.90 in 10.0 mi WNW 13.8 mph 20.7 mph N/A   Clear
3:55 PM 93.2 °F 98.8 °F 69.8 °F 46% 29.90 in 10.0 mi NW 13.8 mph - N/A   Scattered Clouds
4:15 PM 91.4 °F 96.8 °F 69.8 °F 49% 29.89 in 10.0 mi NNW 12.7 mph 18.4 mph N/A   Scattered Clouds
4:35 PM 95.0 °F 101.3 °F 69.8 °F 44% 29.89 in 10.0 mi NNW 15.0 mph - N/A   Scattered Clouds
4:55 PM 95.0 °F 101.3 °F 69.8 °F 44% 29.88 in 10.0 mi NNW 17.3 mph 21.9 mph N/A   Clear
5:15 PM 93.2 °F 97.7 °F 68.0 °F 44% 29.88 in 10.0 mi NNW 17.3 mph - N/A   Clear
5:35 PM 93.2 °F 97.7 °F 68.0 °F 44% 29.88 in 10.0 mi North 15.0 mph - N/A   Clear
5:55 PM 91.4 °F 93.2 °F 64.4 °F 41% 29.87 in 10.0 mi NNW 15.0 mph 19.6 mph N/A   Clear
6:15 PM 91.4 °F 92.1 °F 62.6 °F 38% 29.87 in 10.0 mi NNW 16.1 mph - N/A   Clear
6:35 PM 89.6 °F 90.1 °F 62.6 °F 40% 29.87 in 10.0 mi North 15.0 mph - N/A   Clear
6:55 PM 89.6 °F 90.1 °F 62.6 °F 40% 29.88 in 10.0 mi North 17.3 mph - N/A   Clear
7:15 PM 87.8 °F 89.4 °F 64.4 °F 46% 29.88 in 10.0 mi NNE 13.8 mph - N/A   Clear
7:35 PM 87.8 °F 88.5 °F 62.6 °F 43% 29.90 in 10.0 mi North 15.0 mph - N/A   Clear
7:55 PM 86.0 °F 86.6 °F 62.6 °F 45% 29.90 in 10.0 mi NNE 16.1 mph - N/A   Clear
8:15 PM 84.2 °F 85.6 °F 64.4 °F 51% 29.91 in 10.0 mi NNE 9.2 mph - N/A   Clear
8:35 PM 82.4 °F 83.9 °F 64.4 °F 54% 29.92 in 10.0 mi North 12.7 mph - N/A   Clear
8:55 PM 82.4 °F 83.9 °F 64.4 °F 54% 29.92 in 10.0 mi NNE 15.0 mph - N/A   Clear
9:15 PM 80.6 °F 82.3 °F 64.4 °F 58% 29.92 in 10.0 mi NNE 19.6 mph - N/A   Clear
9:35 PM 80.6 °F 82.3 °F 64.4 °F 58% 29.93 in 10.0 mi NNE 12.7 mph - N/A   Clear
9:55 PM 78.8 °F - 64.4 °F 61% 29.94 in 10.0 mi NNE 13.8 mph 20.7 mph N/A   Clear
10:15 PM 78.8 °F - 64.4 °F 61% 29.96 in 10.0 mi NNE 10.4 mph - N/A   Clear
10:35 PM 78.8 °F - 64.4 °F 61% 29.97 in 10.0 mi NNE 10.4 mph - N/A   Clear
10:55 PM 77.0 °F - 62.6 °F 61% 29.96 in 10.0 mi NNE 8.1 mph - N/A   Clear
11:15 PM 75.2 °F - 62.6 °F 65% 29.97 in 10.0 mi NNE 6.9 mph - N/A   Clear
11:35 PM 75.2 °F - 62.6 °F 65% 29.96 in 10.0 mi NNE 6.9 mph - N/A   Clear
11:55 PM 73.4 °F - 62.6 °F 69% 29.96 in 10.0 mi NNE 6.9 mph - N/A   Clear